Theta_e
323 318 319 311 298 294 290 294 292 295 295 296 300 299 299 300 300 294 308 318 323 324 329 332 338 341 342 343 343 342 342 341 340 342 342 340 339 338 336 335 336 338 339 339 337 336 336 336 337
317 318 312 303 294 288 290 295 294 295 298 299 299 298 297 298 303 304 308 318 321 322 324 328 337 337 337 337 338 338 337 337 337 338 336 334 335 334 333 331 330 331 332 331 330 331 333 332 332
315 314 305 298 291 288 290 293 294 297 298 298 296 297 299 298 301 304 307 315 319 318 321 326 335 335 335 335 336 336 334 335 335 333 332 331 329 328 326 325 324 324 325 325 324 325 323 323 323
310 305 299 293 291 294 293 294 296 296 296 298 298 294 297 301 302 305 307 315 314 315 318 327 332 332 332 332 332 331 330 332 330 328 326 325 324 323 322 321 321 322 322 322 322 321 320 319 318
305 300 293 290 290 292 295 296 296 296 295 297 298 294 295 299 302 305 308 312 311 312 315 322 331 329 329 329 328 327 327 327 325 323 322 321 320 320 320 320 319 320 320 320 319 318 317 317 316
299 297 290 288 290 294 295 297 297 295 296 295 295 294 296 298 302 305 306 307 310 310 312 317 326 327 326 325 325 324 323 323 322 320 319 318 318 318 318 317 318 318 317 317 317 316 316 316 316
297 295 289 289 292 294 296 297 295 296 295 297 297 295 295 295 300 303 304 305 307 308 309 310 314 319 324 324 323 321 320 320 319 318 317 315 314 314 314 314 315 315 315 315 315 314 313 313 313
299 295 289 290 291 293 296 296 296 297 297 298 300 295 295 296 299 300 301 301 303 304 305 305 306 309 309 312 320 319 317 316 316 314 313 311 310 310 310 310 312 313 313 313 312 310 309 308 309
300 290 288 290 292 294 295 294 296 297 296 296 299 296 297 298 297 295 294 296 299 302 302 302 303 303 303 305 310 315 314 313 312 310 309 304 298 298 301 307 308 308 308 309 308 306 304 302 303
297 289 290 295 295 293 295 295 295 294 293 295 296 296 297 297 296 295 293 294 294 298 298 300 300 300 300 304 303 300 302 299 298 297 297 295 294 296 300 303 303 303 302 303 304 302 300 296 292
297 293 296 299 298 298 296 294 296 294 293 295 297 296 295 294 294 295 295 295 296 297 297 299 298 298 297 299 297 295 296 294 295 294 294 294 295 294 292 291 291 290 293 290 292 291 291 290 291
294 298 298 300 300 297 295 296 295 295 299 299 299 298 295 294 294 294 294 294 292 292 295 296 296 297 296 294 296 294 294 293 292 293 294 292 291 290 290 289 289 288 288 287 288 288 289 289 290
296 297 299 300 299 297 297 297 295 295 297 299 298 297 295 296 295 296 296 295 293 292 294 294 295 296 297 293 294 294 293 294 292 292 293 292 290 289 289 288 288 287 287 287 287 287 287 288 289
295 297 297 298 298 297 296 295 295 299 296 297 298 296 295 296 296 296 294 294 293 294 293 294 295 295 295 293 294 294 293 293 291 290 291 291 290 288 288 287 287 286 286 286 287 286 286 286 287
297 294 295 297 296 296 296 294 293 300 295 297 296 296 296 296 297 296 297 296 296 295 295 293 294 294 294 293 294 293 293 293 291 290 290 290 290 288 287 287 286 286 286 286 286 286 286 285 287
291 290 287 292 294 295 296 290 296 298 296 296 295 295 295 296 297 298 298 297 297 296 294 294 295 294 294 294 293 293 292 291 291 290 289 289 289 288 287 286 286 285 285 285 285 284 284 284 284
285 283 285 290 295 294 292 290 296 295 294 294 294 294 295 297 295 298 298 297 297 297 295 294 294 293 294 293 292 292 291 291 290 288 288 288 288 288 286 286 285 285 285 284 285 283 283 282 283
283 283 285 287 291 290 289 290 295 297 293 293 293 293 293 296 298 300 299 298 298 297 295 295 294 293 293 292 291 290 289 288 288 288 287 287 287 287 285 285 285 285 284 283 283 282 283 282 282
286 285 285 289 292 290 290 291 294 297 294 293 296 297 295 295 300 299 297 298 297 296 294 293 292 292 293 291 290 290 290 288 286 286 287 286 286 286 285 284 284 284 283 283 282 282 281 281 282
289 287 287 291 293 289 290 291 294 294 297 297 296 297 298 299 300 299 295 295 296 296 295 293 292 292 293 293 293 290 290 286 288 287 286 286 286 285 284 283 283 282 282 282 282 282 281 281 281
288 287 288 287 289 288 287 288 288 291 295 298 299 298 299 299 299 300 294 294 295 295 294 293 292 291 293 293 291 286 286 284 284 284 285 285 286 285 284 283 282 282 282 281 280 281 281 280 280
287 291 291 289 284 282 287 282 284 289 291 293 296 297 297 298 300 301 293 292 294 296 294 293 292 291 292 291 290 288 288 287 287 287 285 283 285 284 284 283 282 281 281 280 281 282 281 280 279
290 290 288 285 283 282 283 280 285 289 288 292 295 296 297 298 299 297 293 295 295 295 293 292 292 291 292 290 290 289 288 287 284 283 283 284 283 283 283 282 281 280 280 280 281 280 280 280 279
289 287 286 283 281 277 285 282 286 285 289 291 294 296 297 298 299 292 294 293 291 290 291 291 290 289 290 289 289 289 288 283 283 283 284 284 283 283 282 282 281 280 280 279 280 280 280 279 279
288 284 278 275 275 278 283 281 287 288 290 291 294 296 297 298 297 293 292 291 289 289 289 289 289 288 288 288 288 288 288 285 286 285 285 284 283 282 281 282 281 280 280 280 280 279 279 279 278
285 287 279 272 276 281 281 278 287 291 294 295 294 296 296 294 292 293 292 291 290 290 289 290 289 289 288 288 289 289 288 287 287 286 286 285 284 284 283 282 281 280 280 279 279 278 278 278 279
284 282 289 281 272 273 280 285 291 291 290 290 291 292 292 290 291 292 291 291 290 289 289 289 288 289 289 288 289 288 288 287 287 285 285 285 284 283 281 281 280 279 279 279 278 278 278 278 278
286 288 281 280 273 272 278 279 284 288 289 292 292 290 292 291 290 291 291 291 289 289 288 288 288 289 288 288 288 288 288 287 287 284 283 283 283 281 281 280 280 279 278 278 277 277 278 277 278
282 283 283 283 282 279 278 282 293 292 289 288 290 290 290 289 290 291 292 292 290 289 288 288 287 287 287 288 288 288 287 286 286 284 283 282 281 280 280 280 279 278 278 277 277 276 277 277 276
286 285 286 282 281 281 283 283 295 293 290 289 289 290 290 290 292 292 292 292 290 290 288 289 288 287 288 288 287 287 285 284 284 283 282 281 281 280 280 279 278 278 277 277 276 276 276 276 275
Wind_Speed
4 3 2 5 5 5 4 6 2 2 2 2 2 3 7 3 6 6 2 6 11 8 6 6 7 10 11 11 10 9 10 9 8 9 11 10 10 9 8 8 9 10 9 9 9 9 9 9 10
3 1 5 3 5 2 6 5 6 5 5 6 3 3 2 4 2 5 6 8 10 8 6 6 8 10 10 10 8 9 9 8 9 11 9 8 10 10 10 10 9 9 9 9 9 9 10 10 9
2 3 4 4 4 5 5 5 5 2 4 5 3 1 6 4 3 9 7 11 11 8 6 6 11 12 13 12 11 12 11 11 11 11 11 11 11 10 10 10 10 9 9 10 9 10 10 10 10
3 5 5 4 6 8 6 5 5 5 2 0 4 2 2 2 6 9 9 12 11 8 7 9 14 14 14 14 13 13 12 12 12 12 12 11 11 10 10 10 10 11 11 11 10 10 10 10 10
4 3 3 2 6 6 6 4 8 6 4 5 5 3 4 3 1 8 10 10 12 7 6 7 14 15 15 14 14 14 14 14 13 13 12 11 11 11 11 11 10 10 11 10 11 10 10 9 10
4 4 2 4 6 5 5 6 6 4 3 2 3 4 4 1 8 9 9 9 8 9 6 6 11 13 15 15 15 15 15 15 14 14 14 13 13 12 12 11 11 11 11 11 10 11 11 12 12
5 4 4 4 6 6 6 8 5 6 6 6 3 6 2 3 6 8 9 9 8 7 7 5 4 7 11 13 14 14 14 14 15 15 15 15 14 12 12 11 11 10 11 10 11 12 11 12 12
5 4 3 5 3 6 2 6 1 6 8 1 8 7 7 7 9 6 6 7 8 7 7 7 5 5 5 5 11 13 13 13 14 15 15 15 14 13 12 10 10 11 11 10 11 11 12 12 13
4 3 3 6 3 5 1 3 1 0 3 3 6 3 3 8 11 8 5 4 5 7 8 7 7 6 6 5 6 11 14 14 14 13 12 10 5 6 6 10 11 10 10 10 10 10 10 10 11
4 4 9 6 2 4 2 5 3 2 3 5 4 2 4 12 13 14 11 13 8 11 9 9 8 7 6 6 6 6 6 4 5 5 6 5 6 5 5 7 10 9 8 9 9 9 9 7 3
5 7 6 6 4 5 3 3 4 5 8 10 11 7 9 6 12 14 14 14 19 11 9 11 10 9 8 6 4 3 3 3 4 6 6 5 4 4 4 3 3 3 5 2 3 4 3 5 4
4 9 7 6 4 3 4 2 5 10 15 6 13 7 10 13 17 18 17 17 13 14 15 13 12 11 10 5 6 5 5 4 4 5 7 5 4 4 4 3 4 3 2 3 3 2 3 4 4
6 6 7 7 6 7 1 11 8 14 11 10 6 8 15 16 18 15 16 11 11 14 15 15 13 13 11 9 6 5 5 5 5 5 6 5 5 5 4 4 4 3 2 2 2 3 4 5 5
3 5 7 6 6 5 5 8 5 19 4 13 11 13 14 19 22 15 11 15 16 16 17 15 16 13 11 10 9 7 5 5 5 5 5 6 5 5 4 4 4 3 2 2 3 3 4 4 4
4 9 8 11 8 10 6 13 14 28 3 10 12 12 14 19 12 22 22 21 20 18 16 18 17 14 14 13 10 7 7 6 6 6 7 7 6 6 6 5 4 4 3 4 3 4 4 4 4
4 3 5 1 5 5 10 19 15 11 8 17 13 12 10 16 20 21 18 16 17 16 19 18 16 17 16 14 10 8 7 7 7 6 5 7 7 7 6 5 4 4 3 3 3 3 3 3 4
3 7 8 14 11 6 8 12 12 6 8 13 11 12 11 14 12 17 18 17 18 20 18 19 19 19 18 13 10 9 9 8 7 5 5 6 7 7 6 5 5 5 4 3 2 2 2 2 4
9 6 6 8 3 4 7 16 15 11 6 12 12 11 11 14 23 17 17 17 16 18 18 18 16 18 17 11 7 5 6 5 6 7 6 8 6 7 6 5 5 5 4 3 2 3 2 1 3
2 6 10 8 7 5 11 18 20 20 8 13 17 18 16 17 22 11 12 15 13 13 15 18 19 18 15 11 11 8 11 7 5 6 9 9 7 7 6 4 5 5 5 5 4 3 3 4 4
11 19 20 18 17 6 16 24 14 12 19 19 19 21 22 20 19 16 11 12 17 21 21 20 21 19 17 14 11 6 8 4 6 6 7 9 9 8 7 7 5 5 4 5 4 3 2 2 4
16 15 18 19 6 5 12 26 14 10 17 21 22 22 21 24 23 21 10 13 13 17 20 22 23 22 19 16 9 4 5 4 3 5 7 7 9 8 7 7 6 6 4 4 4 4 5 4 2
20 14 16 14 1 10 3 30 2 8 15 17 21 19 20 22 23 21 10 10 14 21 16 18 19 20 18 17 15 15 10 10 8 8 5 6 9 9 7 7 6 6 4 5 5 4 4 4 4
17 6 8 3 4 4 7 7 3 9 10 18 22 20 18 20 21 16 12 14 18 13 17 16 17 17 16 16 16 14 11 7 4 4 9 9 8 9 8 8 8 7 5 5 6 5 5 3 4
1 2 3 4 3 6 14 11 31 8 13 10 12 19 19 18 21 8 9 7 7 7 11 14 17 16 15 17 17 19 17 10 8 8 10 10 7 8 9 8 7 7 6 7 5 6 6 5 4
5 5 4 4 0 12 3 9 30 6 6 11 16 17 19 17 14 8 10 9 10 13 13 13 17 18 16 18 17 17 15 13 15 13 12 11 9 8 10 11 9 7 7 7 6 6 6 6 5
10 12 9 10 11 16 7 9 18 13 13 14 14 18 15 14 6 9 10 10 12 14 14 14 15 16 16 17 18 16 16 11 11 12 9 10 10 11 11 11 9 8 7 6 6 4 4 5 4
3 8 15 5 1 2 7 17 17 12 10 9 11 12 15 11 9 9 7 8 8 12 15 16 15 15 16 16 14 14 13 14 14 11 10 10 9 8 10 12 11 9 8 8 7 5 5 5 4
7 1 2 2 4 7 8 7 16 19 10 15 14 13 16 11 8 8 7 7 6 7 9 11 13 17 14 15 15 14 15 15 13 10 14 12 10 11 12 12 11 10 9 8 7 5 5 5 4
1 5 5 2 5 15 18 13 32 24 10 9 10 8 8 9 8 8 6 6 7 7 9 11 10 12 12 15 16 16 14 14 13 12 12 12 11 13 13 14 13 12 11 9 7 6 7 7 6
7 12 17 13 16 11 17 18 29 20 6 8 9 10 5 5 8 6 6 6 7 7 9 14 13 14 17 15 13 15 12 12 14 13 13 13 14 13 14 13 13 13 11 10 10 9 6 6 6
Wind_Direction
316 354 65 39 47 60 271 266 228 172 109 249 116 154 178 128 164 207 271 146 138 143 148 147 155 150 147 138 155 143 133 134 137 105 91 102 94 85 88 77 60 59 60 59 56 49 43 32 19
341 67 43 80 89 49 270 255 191 205 172 135 102 94 55 210 145 150 134 185 145 143 138 144 157 156 155 142 139 130 135 138 136 110 109 115 108 104 97 89 80 73 67 59 53 51 45 37 24
297 50 80 99 124 190 227 238 213 221 174 171 113 16 159 213 176 176 216 150 140 141 145 154 156 153 157 156 144 137 141 143 131 125 121 116 113 105 99 92 87 79 69 61 53 49 42 34 28
63 14 27 94 241 257 235 240 199 155 295 102 138 194 275 179 172 180 146 138 136 148 149 160 158 153 152 150 146 141 139 132 129 125 122 117 112 104 94 85 79 77 74 67 59 48 39 36 30
39 59 66 280 250 254 249 207 167 184 193 188 156 225 247 266 161 144 137 141 142 150 153 160 162 159 155 152 150 145 142 136 137 131 126 121 110 104 101 94 89 84 77 71 65 58 54 52 45
41 95 74 240 246 251 263 176 162 203 213 150 151 151 238 333 140 161 135 138 142 146 155 167 164 163 161 157 155 153 150 146 145 136 130 124 116 109 105 99 97 91 82 76 71 64 56 51 46
114 91 224 239 263 293 225 145 188 199 175 232 165 172 274 224 208 156 144 138 140 143 143 143 149 161 165 162 160 157 154 150 145 142 133 128 122 116 113 103 104 94 86 77 71 64 56 50 47
107 95 280 252 250 270 247 180 100 167 226 92 165 225 252 213 170 132 124 139 150 156 158 161 158 151 152 157 160 160 158 157 151 144 142 134 125 123 116 100 104 91 84 80 75 64 56 45 40
97 65 245 253 228 262 355 241 282 291 142 232 206 176 322 131 132 127 138 165 170 182 176 171 168 166 163 157 165 160 161 160 159 152 139 119 122 114 102 107 93 89 82 79 80 70 64 53 42
114 149 226 218 242 246 245 200 236 216 212 245 261 89 85 138 162 173 179 189 198 195 192 180 175 173 169 171 165 163 164 153 145 151 141 137 134 128 110 97 96 90 82 78 74 73 65 64 59
187 216 220 256 234 204 219 243 210 201 247 215 213 192 161 164 183 192 201 200 201 192 187 188 180 177 174 179 168 172 171 163 166 159 151 147 129 119 122 108 90 99 87 69 79 63 58 44 45
216 241 227 263 249 260 223 253 242 203 237 206 226 168 167 182 193 199 205 205 191 189 192 186 185 182 186 165 177 180 176 176 177 174 160 151 147 143 143 134 135 121 126 103 72 52 57 51 31
230 251 245 243 272 252 299 244 232 260 242 247 256 170 188 197 206 212 213 210 199 200 194 191 183 185 186 179 178 178 186 178 174 171 174 158 157 159 151 154 147 141 138 110 85 65 45 37 17
253 264 268 272 242 250 200 277 143 257 206 228 225 213 207 206 208 209 204 209 201 202 199 188 191 187 179 186 182 186 179 173 171 176 184 174 163 157 154 152 149 146 153 122 99 77 54 39 18
295 305 315 254 218 235 138 287 229 253 195 248 242 231 219 221 206 214 213 210 201 204 192 190 188 183 184 186 184 181 182 173 177 184 183 177 170 169 158 157 159 163 142 123 93 58 46 33 0
327 332 317 299 137 247 140 258 255 260 206 255 244 251 237 235 216 224 219 214 202 197 191 188 188 185 185 185 181 180 179 177 182 184 177 181 170 167 159 155 161 161 141 131 101 66 44 19 8
287 246 225 304 194 158 179 243 273 268 204 257 262 252 244 254 242 230 219 209 199 197 188 189 187 186 186 180 177 177 177 182 183 172 175 180 168 172 158 161 159 154 143 122 116 69 61 14 348
221 221 253 242 251 190 231 248 265 266 209 249 269 272 260 253 249 235 217 209 204 196 191 187 185 183 179 170 164 166 174 182 170 180 179 172 177 175 159 163 159 153 137 129 110 107 59 44 322
193 224 232 248 249 205 234 240 247 267 247 244 254 259 253 247 255 237 211 203 198 192 186 186 180 181 171 171 174 185 198 189 184 177 182 176 175 172 169 165 157 161 161 162 147 121 89 31 330
243 253 260 269 261 229 265 258 244 246 262 260 246 248 251 251 252 250 215 188 190 192 191 186 187 178 183 181 182 181 175 182 186 178 182 179 176 174 172 166 175 174 152 144 143 142 129 98 3
231 233 250 255 298 233 295 276 231 241 248 267 260 250 258 253 253 251 204 196 195 198 191 189 185 182 183 177 157 102 99 77 137 185 188 185 179 178 174 173 167 175 157 160 165 158 156 140 49
263 218 251 260 283 272 142 294 160 209 232 248 262 257 248 249 249 252 205 193 197 208 192 189 183 180 181 171 173 178 185 188 198 189 169 169 180 182 178 174 166 167 162 167 170 168 161 137 141
259 186 227 226 200 341 182 257 237 216 234 246 251 256 250 247 251 242 201 205 211 188 189 185 178 178 173 173 179 184 192 188 140 136 153 180 186 184 177 174 171 168 174 178 173 168 169 154 133
177 85 51 51 97 279 227 188 283 195 209 235 254 255 258 252 251 232 213 184 185 166 172 174 173 175 171 177 181 188 191 167 157 165 179 189 186 187 185 174 174 171 174 175 178 169 166 158 144
170 99 296 330 84 229 168 173 257 262 258 223 234 254 256 258 259 196 202 179 163 175 177 173 174 179 175 181 187 192 194 183 188 182 187 181 184 188 187 180 178 181 180 176 169 168 168 165 162
205 195 186 202 243 259 108 230 261 226 237 245 238 248 264 271 233 212 206 191 179 178 176 178 184 182 183 186 192 192 192 192 196 191 188 191 195 194 178 185 174 164 174 174 169 163 165 169 169
197 193 231 290 17 29 259 273 298 268 272 294 272 265 268 272 249 227 207 189 178 180 182 183 181 189 190 191 190 196 194 196 200 187 185 186 180 174 171 177 173 169 173 176 167 171 170 171 176
192 183 83 218 202 234 225 244 259 275 288 277 289 276 279 274 252 243 223 197 190 175 184 185 187 196 191 184 191 195 198 201 197 176 185 182 173 162 169 172 171 168 171 173 168 161 164 171 182
245 246 227 240 197 255 263 253 260 277 264 272 279 307 321 279 254 236 240 218 193 169 188 194 189 188 188 194 194 195 197 195 192 190 185 178 167 170 176 174 169 169 172 172 164 169 177 181 178
218 247 238 236 245 237 253 251 268 270 253 275 264 288 244 260 282 278 248 214 214 199 199 203 196 196 203 196 198 198 185 182 190 190 185 171 177 175 172 168 168 168 168 169 173 176 181 182 184